Pompano Beach, FL

1:40 AM EDT on June 20, 2018 (GMT -0400)
Pompano Beach

Weather History for KPMP - June, 2018

Change the Weather History Date:

Thursday, June 14, 2018

  Actual Average Record
Temperature  
Mean Temperature 82 °F -  
Max Temperature 84 °F 89 °F 95 °F (1982)
Min Temperature 80 °F 72 °F 61 °F (1950)
Cooling Degree Days 17    
Growing Degree Days 32 (Base 50)    
Moisture  
Dew Point 75 °F    
Average Humidity 80    
Maximum Humidity 85    
Minimum Humidity 69    
Precipitation  
Precipitation 0.02 in - - ()
Sea Level Pressure  
Sea Level Pressure 30.08 in    
Wind  
Wind Speed 5 mph (SE)    
Max Wind Speed 9 mph    
Max Gust Speed -    
Visibility 10 miles    
Events Rain , Thunderstorm    
Averages and records for this station are not official NWS values.
T = Trace of Precipitation, MM = Missing Value Source: NWS Daily Summary

Daily Weather History Graph

Daily Weather History Graph

Search for Another Location

Airport or City:

Astronomy

Jun. 14, 2018 Rise Set
Actual Time 6:27 AM EDT 8:14 PM EDT
Civil Twilight 6:01 AM EDT 8:40 PM EDT
Nautical Twilight 5:30 AM EDT 9:11 PM EDT
Astronomical Twilight 4:56 AM EDT 9:44 PM EDT
Moon 7:18 AM EDT (6/14) 9:17 PM EDT (6/14)
Length of Visible Light 14h 38m
Length of Day
13h 46m
New Moon, 1% of the Moon is Illuminated
Jun 14
New Moon
Jun 20
First Quarter
Jun 28
Full
Jul 6
Last Quarter
Jul 12
New

Hourly Weather History & Observations

Time (EDT) Temp. Heat Index Dew Point Humidity Pressure Visibility Wind Dir Wind Speed Gust Speed Precip Events Conditions
12:53 AM 81.0 °F 87.3 °F 75.9 °F 85% 30.10 in 10.0 mi East 5.8 mph - N/A   Scattered Clouds
1:14 AM 81.0 °F 87.3 °F 75.9 °F 85% 30.08 in 10.0 mi ESE 6.9 mph - N/A   Mostly Cloudy
1:26 AM 81.0 °F 87.3 °F 75.9 °F 85% 30.08 in 10.0 mi ESE 8.1 mph - N/A   Scattered Clouds
1:53 AM 81.0 °F 87.3 °F 75.9 °F 85% 30.07 in 10.0 mi ESE 5.8 mph - N/A   Mostly Cloudy
2:09 AM 81.0 °F 86.7 °F 75.0 °F 82% 30.07 in 10.0 mi SE 5.8 mph - N/A   Scattered Clouds
2:53 AM 80.1 °F 85.1 °F 75.0 °F 85% 30.06 in 10.0 mi ESE 3.5 mph - N/A   Partly Cloudy
3:53 AM 80.1 °F 85.1 °F 75.0 °F 85% 30.04 in 10.0 mi SE 3.5 mph - N/A   Clear
4:53 AM 80.1 °F 85.1 °F 75.0 °F 85% 30.04 in 10.0 mi SE 4.6 mph - N/A   Scattered Clouds
5:53 AM 80.1 °F 85.1 °F 75.0 °F 85% 30.04 in 10.0 mi SE 6.9 mph - N/A   Clear
6:53 AM 80.1 °F 85.1 °F 75.0 °F 85% 30.06 in 9.0 mi Calm Calm - N/A   Partly Cloudy
7:53 AM 81.0 °F 87.3 °F 75.9 °F 85% 30.08 in 10.0 mi Calm Calm - N/A   Partly Cloudy
8:53 AM 84.0 °F 91.9 °F 75.0 °F 74% 30.09 in 10.0 mi SE 6.9 mph - N/A   Scattered Clouds
9:53 AM 84.0 °F 91.9 °F 75.0 °F 74% 30.10 in 10.0 mi East 5.8 mph - N/A   Scattered Clouds
10:53 AM 84.9 °F 95.3 °F 77.0 °F 77% 30.11 in 8.0 mi East 9.2 mph - 0.02 in Rain , Thunderstorm Light Thunderstorms and Rain
11:09 AM 82.0 °F 88.6 °F 75.0 °F 79% 30.11 in 6.0 mi South 5.8 mph - 0.00 in Rain , Thunderstorm Light Rain
11:35 AM 82.9 °F 90.8 °F 75.9 °F 79% 30.10 in 10.0 mi Variable 4.6 mph - 0.00 in Thunderstorm Thunderstorm
11:53 AM 81.0 °F 86.2 °F 73.9 °F 79% 30.12 in 10.0 mi SSW 6.9 mph - 0.00 in Rain , Thunderstorm Light Thunderstorms and Rain
12:32 PM 80.1 °F 84.2 °F 73.0 °F 79% 30.12 in 10.0 mi NW 9.2 mph - 0.00 in Rain Light Rain
12:53 PM 81.0 °F 84.9 °F 71.1 °F 72% 30.11 in 10.0 mi NW 4.6 mph - 0.00 in Rain Light Rain
1:53 PM 82.9 °F 88.0 °F 72.0 °F 69% 30.10 in 10.0 mi NNW 3.5 mph - 0.00 in   Mostly Cloudy
2:53 PM 82.0 °F 87.9 °F 73.9 °F 76% 30.07 in 10.0 mi SE 3.5 mph - N/A   Mostly Cloudy
3:53 PM 82.0 °F 89.4 °F 75.9 °F 82% 30.05 in 10.0 mi SE 5.8 mph - 0.00 in   Mostly Cloudy
4:53 PM 84.9 °F 94.1 °F 75.9 °F 74% 30.06 in 10.0 mi SE 5.8 mph - N/A   Mostly Cloudy
5:53 PM 82.9 °F 90.2 °F 75.0 °F 77% 30.04 in 9.0 mi SSE 6.9 mph - N/A   Mostly Cloudy
6:53 PM 82.9 °F 90.2 °F 75.0 °F 77% 30.03 in 9.0 mi SE 8.1 mph - N/A   Clear
7:53 PM 82.0 °F 88.6 °F 75.0 °F 79% 30.04 in 10.0 mi SSE 4.6 mph - N/A   Mostly Cloudy
8:53 PM 81.0 °F 86.2 °F 73.9 °F 79% 30.07 in 10.0 mi South 5.8 mph - N/A   Clear
9:53 PM 81.0 °F 86.2 °F 73.9 °F 79% 30.09 in 10.0 mi Calm Calm - N/A   Clear
10:53 PM 81.0 °F 86.2 °F 73.9 °F 79% 30.10 in 10.0 mi Calm Calm - N/A   Clear
11:53 PM 81.0 °F 86.2 °F 73.9 °F 79% 30.09 in 10.0 mi Calm Calm - N/A   Clear